Location: Angwan Shehu
(11.2514°N, 7.4613°E)
Time: 15:13:53
(UTC+00:00)

Cosmos 2360 - Pass Details

Date: 14 November 2019
Orbit: 845 x 857 km, 70.8° (Epoch: 08 December)

Event Time Altitude Azimuth Distance (km) Brightness Sun altitude
Rises 17:27:06 0° 195° (SSW) 3,394 7.8 -6.4°
Reaches altitude 10° 17:29:32 10° 195° (SSW) 2,460 7.1 -7.0°
Maximum altitude 17:35:12 89° 105° (ESE) 849 4.2 -8.3°
Drops below altitude 10° 17:40:52 10° 16° (NNE) 2,467 6.3 -9.7°
Sets 17:43:19 0° 17° (NNE) 3,404 7.0 -10.2°
